Location: Heilbronn
(49.1548°N, 9.2780°E)
Time: 15:59:02
(UTC+01:00)

ISS - Visible Passes

Search period start: 23 November 2017 00:00
Search period end: 03 December 2017 00:00
Orbit: 402 x 407 km, 51.6° (Epoch: 24 November)

Date Brightness Start Highest point End Pass type
(mag) Time Alt. Az. Time Alt. Az. Time Alt. Az.
27 Nov -1.0 19:07:24 10° SSW 19:07:51 13° SSW 19:07:51 13° SSW visible
28 Nov -1.9 18:15:46 10° S 18:17:50 18° SSE 18:17:50 18° SSE visible
29 Nov -1.4 17:24:58 10° SSE 17:26:01 11° SE 17:27:02 10° ESE visible
29 Nov -2.0 18:58:41 10° SW 19:00:25 27° SW 19:00:25 27° SW visible
30 Nov -2.9 18:06:36 10° SSW 18:09:36 34° SSE 18:10:15 31° ESE visible
30 Nov -0.3 19:42:41 10° W 19:42:54 12° W 19:42:54 12° W visible
01 Dec -2.1 17:14:47 10° SSW 17:17:22 22° SE 17:19:58 10° E visible
01 Dec -2.8 18:50:15 10° WSW 18:52:40 46° WSW 18:52:40 46° WSW visible
02 Dec -3.7 17:57:54 10° SW 18:01:09 62° SSE 18:02:23 33° E visible
02 Dec -0.6 19:34:27 10° W 19:35:02 14° W 19:35:02 14° W visible
